| time (UTC) | temp C | wind direction | speed KPH | gust KPH | rain 1hr cm | rain 24hr cm | rain mn cm | humidity % | barometer mb |
| 20260502235214 | 19 | 247 | 0.0 | 0.0 | 0.00 | 0.00 | 0.00 | 34 | 1014.4 |
| 20260502234709 | 19 | 266 | 8.0 | 9.7 | 0.00 | 0.00 | 0.00 | 33 | 1014.3 |
| 20260502234207 | 20 | 284 | 8.0 | 11.3 | 0.00 | 0.00 | 0.00 | 33 | 1014.2 |
| 20260502233702 | 19 | 247 | 6.4 | 8.0 | 0.00 | 0.00 | 0.00 | 32 | 1014.5 |
| 20260502233159 | 19 | 261 | 8.0 | 9.7 | 0.00 | 0.00 | 0.00 | 32 | 1015.0 |
| 20260502232655 | 19 | 280 | 8.0 | 9.7 | 0.00 | 0.00 | 0.00 | 32 | 1014.8 |
| 20260502232153 | 19 | 268 | 0.0 | 0.0 | 0.00 | 0.00 | 0.00 | 33 | 1014.8 |
| 20260502231649 | 20 | 259 | 8.0 | 12.9 | 0.00 | 0.00 | 0.00 | 32 | 1015.0 |
| 20260502231147 | 20 | 87 | 4.8 | 9.7 | 0.00 | 0.00 | 0.00 | 32 | 1015.1 |
| 20260502230646 | 20 | 225 | 0.0 | 0.0 | 0.00 | 0.00 | 0.00 | 32 | 1015.2 |
| 20260502230144 | 20 | 246 | 0.0 | 0.0 | 0.00 | 0.00 | 0.00 | 32 | 1015.2 |
| 20260502225639 | 20 | 260 | 1.6 | 8.0 | 0.00 | 0.00 | 0.00 | 32 | 1015.1 |
| 20260502225137 | 21 | 281 | 1.6 | 4.8 | 0.00 | 0.00 | 0.00 | 31 | 1015.2 |
| 20260502224632 | 20 | 214 | 0.0 | 0.0 | 0.00 | 0.00 | 0.00 | 31 | 1015.7 |
| 20260502224129 | 20 | 173 | 0.0 | 0.0 | 0.00 | 0.00 | 0.00 | 34 | 1015.3 |
| 20260502223627 | 20 | 238 | 0.0 | 0.0 | 0.00 | 0.00 | 0.00 | 32 | 1015.3 |
| 20260502223125 | 20 | 91 | 0.0 | 1.6 | 0.00 | 0.00 | 0.00 | 32 | 1015.7 |
| 20260502222622 | 20 | 104 | 0.0 | 0.0 | 0.00 | 0.00 | 0.00 | 33 | 1015.7 |
| 20260502222119 | 20 | 199 | 0.0 | 0.0 | 0.00 | 0.00 | 0.00 | 32 | 1015.7 |
| 20260502221614 | 20 | 87 | 1.6 | 3.2 | 0.00 | 0.00 | 0.00 | 32 | 1015.8 |
| 20260502221112 | 19 | 258 | 0.0 | 0.0 | 0.00 | 0.00 | 0.00 | 33 | 1015.9 |
| 20260502220608 | 19 | 266 | 1.6 | 3.2 | 0.00 | 0.00 | 0.00 | 34 | 1015.9 |
| 20260502220104 | 20 | 341 | 11.3 | 12.9 | 0.00 | 0.00 | 0.00 | 35 | 1015.8 |
| 20260502215602 | 19 | 252 | 3.2 | 4.8 | 0.00 | 0.00 | 0.00 | 35 | 1016.0 |
| 20260502215058 | 20 | 158 | 11.3 | 14.5 | 0.00 | 0.00 | 0.00 | 32 | 1016.1 |
| 20260502214555 | 20 | 175 | 0.0 | 4.8 | 0.00 | 0.00 | 0.00 | 32 | 1016.1 |
| 20260502214053 | 20 | 241 | 0.0 | 1.6 | 0.00 | 0.00 | 0.00 | 33 | 1016.3 |
| 20260502213549 | 18 | 265 | 3.2 | 3.2 | 0.00 | 0.00 | 0.00 | 33 | 1016.5 |
| 20260502213047 | 18 | 330 | 0.0 | 0.0 | 0.00 | 0.00 | 0.00 | 33 | 1016.3 |
| 20260502212546 | 20 | 159 | 6.4 | 8.0 | 0.00 | 0.00 | 0.00 | 34 | 1016.5 |
| 20260502212043 | 20 | 255 | 0.0 | 0.0 | 0.00 | 0.00 | 0.00 | 34 | 1016.4 |
| 20260502211538 | 20 | 264 | 0.0 | 0.0 | 0.00 | 0.00 | 0.00 | 33 | 1016.3 |
| 20260502211036 | 19 | 110 | 0.0 | 1.6 | 0.00 | 0.00 | 0.00 | 34 | 1016.8 |
| 20260502210533 | 19 | 285 | 6.4 | 9.7 | 0.00 | 0.00 | 0.00 | 35 | 1016.7 |
| 20260502210030 | 19 | 13 | 16.1 | 20.9 | 0.00 | 0.00 | 0.00 | 35 | 1016.4 |
| 20260502205526 | 18 | 247 | 3.2 | 8.0 | 0.00 | 0.00 | 0.00 | 37 | 1016.7 |
| 20260502205024 | 19 | 274 | 8.0 | 12.9 | 0.00 | 0.00 | 0.00 | 36 | 1016.8 |
| 20260502204521 | 19 | 255 | 4.8 | 9.7 | 0.00 | 0.00 | 0.00 | 34 | 1016.8 |
| 20260502204019 | 20 | 274 | 0.0 | 1.6 | 0.00 | 0.00 | 0.00 | 34 | 1016.8 |
| 20260502203515 | 19 | 231 | 0.0 | 0.0 | 0.00 | 0.00 | 0.00 | 35 | 1017.1 |
| 20260502203012 | 20 | 259 | 0.0 | 0.0 | 0.00 | 0.00 | 0.00 | 37 | 1017.0 |
| 20260502202508 | 18 | 163 | 0.0 | 0.0 | 0.00 | 0.00 | 0.00 | 35 | 1017.2 |
| 20260502202007 | 18 | 151 | 12.9 | 14.5 | 0.00 | 0.00 | 0.00 | 35 | 1017.1 |
| 20260502201502 | 18 | 150 | 6.4 | 9.7 | 0.00 | 0.00 | 0.00 | 37 | 1017.1 |
| 20260502200959 | 18 | 154 | 11.3 | 12.9 | 0.00 | 0.00 | 0.00 | 36 | 1017.3 |
| 20260502200455 | 18 | 152 | 12.9 | 16.1 | 0.00 | 0.00 | 0.00 | 36 | 1017.3 |
| 20260502195953 | 18 | 160 | 3.2 | 4.8 | 0.00 | 0.00 | 0.00 | 34 | 1017.5 |
| 20260502195450 | 18 | 142 | 11.3 | 12.9 | 0.00 | 0.00 | 0.00 | 35 | 1017.7 |
| 20260502194946 | 17 | 199 | 0.0 | 0.0 | 0.00 | 0.00 | 0.00 | 36 | 1017.7 |
| 20260502194443 | 17 | 165 | 9.7 | 11.3 | 0.00 | 0.00 | 0.00 | 37 | 1017.8 |
| 20260502193938 | 18 | 154 | 9.7 | 17.7 | 0.00 | 0.00 | 0.00 | 38 | 1017.9 |
| 20260502193436 | 17 | 168 | 11.3 | 12.9 | 0.00 | 0.00 | 0.00 | 40 | 1018.1 |
| 20260502192932 | 17 | 162 | 8.0 | 9.7 | 0.00 | 0.00 | 0.00 | 38 | 1018.0 |
| 20260502192429 | 18 | 164 | 9.7 | 12.9 | 0.00 | 0.00 | 0.00 | 39 | 1018.0 |
| 20260502191925 | 18 | 162 | 9.7 | 11.3 | 0.00 | 0.00 | 0.00 | 38 | 1018.1 |
| 20260502191423 | 18 | 178 | 3.2 | 4.8 | 0.00 | 0.00 | 0.00 | 38 | 1018.2 |
| 20260502190921 | 18 | 154 | 4.8 | 9.7 | 0.00 | 0.00 | 0.00 | 38 | 1018.2 |
| 20260502190418 | 17 | 163 | 0.0 | 0.0 | 0.00 | 0.00 | 0.00 | 41 | 1018.2 |
| 20260502185914 | 18 | 271 | 6.4 | 9.7 | 0.00 | 0.00 | 0.00 | 39 | 1018.5 |
| 20260502185409 | 17 | 72 | 1.6 | 4.8 | 0.00 | 0.00 | 0.00 | 39 | 1018.3 |
| 20260502184907 | 17 | 183 | 0.0 | 0.0 | 0.00 | 0.00 | 0.00 | 38 | 1018.4 |
| 20260502184402 | 17 | 174 | 0.0 | 0.0 | 0.00 | 0.00 | 0.00 | 38 | 1018.3 |
| 20260502183859 | 17 | 150 | 14.5 | 16.1 | 0.00 | 0.00 | 0.00 | 39 | 1018.5 |
| 20260502183355 | 17 | 168 | 9.7 | 12.9 | 0.00 | 0.00 | 0.00 | 38 | 1018.7 |
| 20260502182850 | 17 | 135 | 8.0 | 9.7 | 0.00 | 0.00 | 0.00 | 41 | 1018.7 |
| 20260502182347 | 16 | 111 | 11.3 | 14.5 | 0.00 | 0.00 | 0.00 | 43 | 1018.5 |
| 20260502181843 | 16 | 115 | 9.7 | 11.3 | 0.00 | 0.00 | 0.00 | 43 | 1018.7 |
| 20260502181342 | 16 | 140 | 9.7 | 11.3 | 0.00 | 0.00 | 0.00 | 43 | 1019.0 |
| 20260502180839 | 16 | 110 | 12.9 | 16.1 | 0.00 | 0.00 | 0.00 | 41 | 1019.0 |
| 20260502180336 | 16 | 156 | 1.6 | 3.2 | 0.00 | 0.00 | 0.00 | 45 | 1018.9 |
| 20260502170255 | 15 | 163 | 11.3 | 14.5 | 0.00 | 0.00 | 0.00 | 44 | 1019.2 |
| 20260502164242 | 15 | 180 | 0.0 | 0.0 | 0.00 | 0.00 | 0.00 | 45 | 1019.5 |
| 20260502163738 | 15 | 164 | 3.2 | 8.0 | 0.00 | 0.00 | 0.00 | 48 | 1019.8 |
| 20260502163234 | 14 | 166 | 3.2 | 4.8 | 0.00 | 0.00 | 0.00 | 50 | 1019.4 |
| 20260502162731 | 15 | 134 | 6.4 | 8.0 | 0.00 | 0.00 | 0.00 | 46 | 1019.4 |
| 20260502162223 | 14 | 146 | 11.3 | 12.9 | 0.00 | 0.00 | 0.00 | 48 | 1019.2 |
| 20260502161720 | 13 | 172 | 11.3 | 14.5 | 0.00 | 0.00 | 0.00 | 48 | 1019.5 |
| 20260502161216 | 13 | 131 | 14.5 | 16.1 | 0.00 | 0.00 | 0.00 | 49 | 1019.5 |
| 20260502160715 | 13 | 151 | 9.7 | 11.3 | 0.00 | 0.00 | 0.00 | 50 | 1019.7 |
| 20260502160214 | 13 | 179 | 1.6 | 8.0 | 0.00 | 0.00 | 0.00 | 51 | 1019.9 |
| 20260502152132 | 12 | 148 | 6.4 | 11.3 | 0.00 | 0.00 | 0.00 | 52 | 1020.0 |
| 20260502151630 | 11 | 168 | 6.4 | 8.0 | 0.00 | 0.00 | 0.00 | 52 | 1020.0 |
| 20260502151127 | 11 | 158 | 11.3 | 11.3 | 0.00 | 0.00 | 0.00 | 53 | 1019.9 |
| 20260502150624 | 11 | 148 | 12.9 | 14.5 | 0.00 | 0.00 | 0.00 | 54 | 1019.9 |
| 20260502150120 | 10 | 193 | 0.0 | 0.0 | 0.00 | 0.00 | 0.00 | 57 | 1020.1 |
| 20260502130509 | 3 | 217 | 0.0 | 0.0 | 0.00 | 0.00 | 0.00 | 76 | 1019.9 |
| 20260502123452 | 2 | 218 | 0.0 | 0.0 | 0.00 | 0.00 | 0.00 | 78 | 1019.5 |
| 20260502122949 | 2 | 218 | 0.0 | 0.0 | 0.00 | 0.00 | 0.00 | 78 | 1019.5 |
| 20260502122445 | 2 | 227 | 0.0 | 0.0 | 0.00 | 0.00 | 0.00 | 78 | 1019.4 |
| 20260502121943 | 2 | 231 | 0.0 | 0.0 | 0.00 | 0.00 | 0.00 | 78 | 1019.3 |
| 20260502121440 | 2 | 221 | 0.0 | 0.0 | 0.00 | 0.00 | 0.00 | 78 | 1019.3 |
| 20260502120938 | 2 | 241 | 0.0 | 0.0 | 0.00 | 0.00 | 0.00 | 76 | 1018.8 |
| 20260502120433 | 2 | 209 | 0.0 | 0.0 | 0.00 | 0.00 | 0.00 | 76 | 1018.9 |
| 20260502115931 | 2 | 230 | 0.0 | 0.0 | 0.00 | 0.00 | 0.00 | 76 | 1018.7 |
| 20260502115428 | 2 | 234 | 0.0 | 0.0 | 0.00 | 0.00 | 0.00 | 77 | 1018.9 |
| 20260502114924 | 3 | 208 | 0.0 | 0.0 | 0.00 | 0.00 | 0.00 | 75 | 1018.7 |
| 20260502114421 | 2 | 169 | 0.0 | 0.0 | 0.00 | 0.00 | 0.00 | 76 | 1018.8 |
| 20260502113918 | 2 | 222 | 0.0 | 0.0 | 0.00 | 0.00 | 0.00 | 79 | 1018.7 |
| 20260502113416 | 2 | 175 | 8.0 | 9.7 | 0.00 | 0.00 | 0.00 | 79 | 1018.7 |
| 20260502112914 | 2 | 221 | 0.0 | 0.0 | 0.00 | 0.00 | 0.00 | 78 | 1018.3 |
| 20260502112411 | 2 | 221 | 0.0 | 0.0 | 0.00 | 0.00 | 0.00 | 78 | 1018.0 |
| 20260502111909 | 2 | 220 | 0.0 | 0.0 | 0.00 | 0.00 | 0.00 | 77 | 1018.0 |
| 20260502111406 | 2 | 214 | 0.0 | 0.0 | 0.00 | 0.00 | 0.00 | 75 | 1017.9 |
| 20260502110903 | 2 | 217 | 0.0 | 0.0 | 0.00 | 0.00 | 0.00 | 75 | 1017.8 |
| 20260502110401 | 3 | 219 | 0.0 | 0.0 | 0.00 | 0.00 | 0.00 | 74 | 1017.8 |
| 20260502105858 | 3 | 221 | 0.0 | 0.0 | 0.00 | 0.00 | 0.00 | 74 | 1017.8 |
| 20260502105355 | 2 | 221 | 0.0 | 0.0 | 0.00 | 0.00 | 0.00 | 75 | 1017.5 |
| 20260502104853 | 2 | 222 | 0.0 | 0.0 | 0.00 | 0.00 | 0.00 | 75 | 1017.7 |
| 20260502104350 | 2 | 222 | 0.0 | 0.0 | 0.00 | 0.00 | 0.00 | 75 | 1017.5 |
| 20260502103847 | 2 | 221 | 0.0 | 0.0 | 0.00 | 0.00 | 0.00 | 73 | 1017.4 |
| 20260502103345 | 3 | 221 | 0.0 | 0.0 | 0.00 | 0.00 | 0.00 | 73 | 1017.4 |
| 20260502102841 | 3 | 221 | 0.0 | 0.0 | 0.00 | 0.00 | 0.00 | 74 | 1017.7 |
| 20260502102338 | 2 | 221 | 0.0 | 0.0 | 0.00 | 0.00 | 0.00 | 74 | 1017.7 |
| 20260502101836 | 2 | 221 | 0.0 | 0.0 | 0.00 | 0.00 | 0.00 | 73 | 1017.4 |
| 20260502101334 | 2 | 221 | 0.0 | 0.0 | 0.00 | 0.00 | 0.00 | 73 | 1017.4 |
| 20260502100832 | 3 | 220 | 0.0 | 0.0 | 0.00 | 0.00 | 0.00 | 73 | 1017.4 |
| 20260502100331 | 3 | 222 | 0.0 | 0.0 | 0.00 | 0.00 | 0.00 | 73 | 1017.4 |
| 20260502091304 | 3 | 225 | 0.0 | 0.0 | 0.00 | 0.00 | 0.00 | 69 | 1016.9 |
| 20260502090802 | 3 | 224 | 0.0 | 0.0 | 0.00 | 0.00 | 0.00 | 69 | 1017.0 |
| 20260502090258 | 4 | 220 | 0.0 | 0.0 | 0.00 | 0.00 | 0.00 | 68 | 1017.0 |
| 20260502071159 | 6 | 219 | 0.0 | 0.0 | 0.00 | 0.00 | 0.00 | 59 | 1016.8 |
| 20260502070657 | 6 | 220 | 0.0 | 0.0 | 0.00 | 0.00 | 0.00 | 58 | 1016.7 |
| 20260502070155 | 6 | 220 | 0.0 | 0.0 | 0.00 | 0.00 | 0.00 | 58 | 1016.9 |
| 20260502065653 | 6 | 220 | 0.0 | 0.0 | 0.00 | 0.00 | 0.00 | 56 | 1016.9 |
| 20260502065150 | 7 | 220 | 0.0 | 0.0 | 0.00 | 0.00 | 0.00 | 56 | 1016.8 |
| 20260502064649 | 7 | 226 | 0.0 | 0.0 | 0.00 | 0.00 | 0.00 | 54 | 1016.8 |
| 20260502064145 | 7 | 229 | 0.0 | 0.0 | 0.00 | 0.00 | 0.00 | 56 | 1016.7 |
| 20260502063643 | 7 | 232 | 0.0 | 0.0 | 0.00 | 0.00 | 0.00 | 55 | 1016.7 |
| 20260502063141 | 7 | 232 | 0.0 | 0.0 | 0.00 | 0.00 | 0.00 | 55 | 1016.5 |
| 20260502062637 | 7 | 232 | 0.0 | 0.0 | 0.00 | 0.00 | 0.00 | 55 | 1016.5 |
| 20260502062135 | 7 | 215 | 0.0 | 0.0 | 0.00 | 0.00 | 0.00 | 53 | 1016.4 |
| 20260502061633 | 7 | 213 | 0.0 | 0.0 | 0.00 | 0.00 | 0.00 | 53 | 1016.7 |
| 20260502061131 | 7 | 214 | 0.0 | 0.0 | 0.00 | 0.00 | 0.00 | 53 | 1016.5 |
| 20260502060630 | 8 | 216 | 0.0 | 0.0 | 0.00 | 0.00 | 0.00 | 51 | 1016.3 |
| 20260502060127 | 8 | 231 | 0.0 | 0.0 | 0.00 | 0.00 | 0.00 | 48 | 1016.3 |
| 20260502055625 | 8 | 230 | 0.0 | 0.0 | 0.00 | 0.00 | 0.00 | 49 | 1016.3 |
| 20260502055123 | 8 | 234 | 0.0 | 0.0 | 0.00 | 0.00 | 0.00 | 51 | 1016.0 |
| 20260502054622 | 8 | 236 | 0.0 | 0.0 | 0.00 | 0.00 | 0.00 | 49 | 1016.1 |
| 20260502054119 | 8 | 232 | 0.0 | 0.0 | 0.00 | 0.00 | 0.00 | 48 | 1016.2 |
| 20260502053616 | 8 | 234 | 0.0 | 0.0 | 0.00 | 0.00 | 0.00 | 50 | 1016.1 |
| 20260502053113 | 9 | 217 | 0.0 | 0.0 | 0.00 | 0.00 | 0.00 | 45 | 1016.2 |
| 20260502052612 | 9 | 226 | 0.0 | 0.0 | 0.00 | 0.00 | 0.00 | 47 | 1016.3 |
| 20260502052110 | 9 | 227 | 0.0 | 0.0 | 0.00 | 0.00 | 0.00 | 45 | 1016.3 |
| 20260502051607 | 10 | 225 | 0.0 | 0.0 | 0.00 | 0.00 | 0.00 | 45 | 1016.0 |
| 20260502051105 | 10 | 225 | 0.0 | 0.0 | 0.00 | 0.00 | 0.00 | 45 | 1016.1 |
| 20260502050601 | 9 | 230 | 0.0 | 0.0 | 0.00 | 0.00 | 0.00 | 43 | 1016.1 |
| 20260502050058 | 8 | 244 | 0.0 | 0.0 | 0.00 | 0.00 | 0.00 | 48 | 1016.2 |
| 20260502045554 | 10 | 237 | 0.0 | 0.0 | 0.00 | 0.00 | 0.00 | 48 | 1016.2 |
| 20260502045052 | 10 | 229 | 0.0 | 0.0 | 0.00 | 0.00 | 0.00 | 45 | 1016.2 |
| 20260502044548 | 10 | 229 | 0.0 | 0.0 | 0.00 | 0.00 | 0.00 | 40 | 1016.2 |
| 20260502044045 | 10 | 232 | 0.0 | 0.0 | 0.00 | 0.00 | 0.00 | 42 | 1016.0 |
| 20260502043542 | 10 | 239 | 0.0 | 0.0 | 0.00 | 0.00 | 0.00 | 44 | 1016.2 |
| 20260502043038 | 11 | 223 | 0.0 | 0.0 | 0.00 | 0.00 | 0.00 | 40 | 1016.2 |
| 20260502042533 | 11 | 236 | 0.0 | 0.0 | 0.00 | 0.00 | 0.00 | 40 | 1015.8 |
| 20260502042031 | 12 | 224 | 0.0 | 0.0 | 0.00 | 0.00 | 0.00 | 39 | 1016.0 |
| 20260502041529 | 12 | 231 | 0.0 | 0.0 | 0.00 | 0.00 | 0.00 | 37 | 1016.1 |
| 20260502041026 | 12 | 239 | 0.0 | 0.0 | 0.00 | 0.00 | 0.00 | 38 | 1015.9 |
| 20260502040522 | 12 | 257 | 0.0 | 0.0 | 0.00 | 0.00 | 0.00 | 38 | 1015.9 |
| 20260502040020 | 12 | 259 | 0.0 | 0.0 | 0.00 | 0.00 | 0.00 | 37 | 1015.9 |
| 20260502035515 | 12 | 246 | 0.0 | 0.0 | 0.00 | 0.00 | 0.00 | 37 | 1016.0 |
| 20260502035013 | 12 | 240 | 0.0 | 0.0 | 0.00 | 0.00 | 0.00 | 38 | 1016.0 |
| 20260502034511 | 12 | 254 | 0.0 | 0.0 | 0.00 | 0.00 | 0.00 | 37 | 1016.0 |
| 20260502034009 | 13 | 259 | 0.0 | 0.0 | 0.00 | 0.00 | 0.00 | 34 | 1015.7 |
| 20260502033507 | 12 | 243 | 0.0 | 0.0 | 0.00 | 0.00 | 0.00 | 35 | 1015.5 |
| 20260502033004 | 13 | 224 | 0.0 | 0.0 | 0.00 | 0.00 | 0.00 | 35 | 1015.5 |
| 20260502032459 | 13 | 235 | 0.0 | 0.0 | 0.00 | 0.00 | 0.00 | 32 | 1015.7 |
| 20260502031956 | 13 | 250 | 0.0 | 0.0 | 0.00 | 0.00 | 0.00 | 33 | 1015.4 |
| 20260502031455 | 13 | 262 | 0.0 | 0.0 | 0.00 | 0.00 | 0.00 | 33 | 1015.4 |
| 20260502030953 | 13 | 258 | 0.0 | 0.0 | 0.00 | 0.00 | 0.00 | 34 | 1015.4 |
| 20260502030451 | 13 | 252 | 0.0 | 0.0 | 0.00 | 0.00 | 0.00 | 34 | 1015.3 |
| 20260502025948 | 13 | 238 | 0.0 | 0.0 | 0.00 | 0.00 | 0.00 | 33 | 1015.2 |
| 20260502025445 | 13 | 249 | 0.0 | 0.0 | 0.00 | 0.00 | 0.00 | 34 | 1015.0 |
| 20260502024943 | 14 | 252 | 0.0 | 0.0 | 0.00 | 0.00 | 0.00 | 34 | 1014.9 |
| 20260502024441 | 14 | 273 | 0.0 | 0.0 | 0.00 | 0.00 | 0.00 | 32 | 1014.8 |
| 20260502023939 | 15 | 261 | 0.0 | 0.0 | 0.00 | 0.00 | 0.00 | 31 | 1014.9 |
| 20260502023436 | 16 | 236 | 0.0 | 0.0 | 0.00 | 0.00 | 0.00 | 30 | 1014.8 |
| 20260502022933 | 18 | 235 | 0.0 | 0.0 | 0.00 | 0.00 | 0.00 | 24 | 1015.0 |
| 20260502022429 | 19 | 240 | 0.0 | 0.0 | 0.00 | 0.00 | 0.00 | 20 | 1014.6 |
| 20260502021927 | 20 | 205 | 0.0 | 0.0 | 0.00 | 0.00 | 0.00 | 16 | 1014.8 |
| 20260502021424 | 20 | 87 | 0.0 | 3.2 | 0.00 | 0.00 | 0.00 | 17 | 1014.9 |
| 20260502020921 | 20 | 183 | 0.0 | 0.0 | 0.00 | 0.00 | 0.00 | 17 | 1014.5 |
| 20260502020419 | 20 | 212 | 0.0 | 0.0 | 0.00 | 0.00 | 0.00 | 19 | 1014.8 |
| 20260502015915 | 21 | 224 | 0.0 | 0.0 | 0.00 | 0.00 | 0.00 | 16 | 1014.8 |
| 20260502015413 | 21 | 334 | 6.4 | 9.7 | 0.00 | 0.00 | 0.00 | 15 | 1014.4 |
| 20260502014910 | 21 | 187 | 0.0 | 1.6 | 0.00 | 0.00 | 0.00 | 15 | 1014.6 |
| 20260502014406 | 21 | 166 | 0.0 | 0.0 | 0.00 | 0.00 | 0.00 | 15 | 1014.4 |
| 20260502013903 | 21 | 157 | 9.7 | 14.5 | 0.00 | 0.00 | 0.00 | 17 | 1014.5 |
| 20260502013358 | 21 | 160 | 1.6 | 3.2 | 0.00 | 0.00 | 0.00 | 16 | 1014.3 |
| 20260502012855 | 21 | 161 | 8.0 | 12.9 | 0.00 | 0.00 | 0.00 | 16 | 1014.5 |
| 20260502012353 | 21 | 140 | 4.8 | 9.7 | 0.00 | 0.00 | 0.00 | 17 | 1014.6 |
| 20260502011850 | 21 | 159 | 0.0 | 3.2 | 0.00 | 0.00 | 0.00 | 20 | 1014.3 |
| 20260502011346 | 21 | 160 | 1.6 | 1.6 | 0.00 | 0.00 | 0.00 | 19 | 1014.3 |
| 20260502010843 | 21 | 195 | 1.6 | 3.2 | 0.00 | 0.00 | 0.00 | 18 | 1014.5 |
| 20260502010340 | 21 | 207 | 0.0 | 1.6 | 0.00 | 0.00 | 0.00 | 18 | 1014.8 |
| 20260502005837 | 21 | 180 | 3.2 | 4.8 | 0.00 | 0.00 | 0.00 | 17 | 1014.4 |
| 20260502005335 | 21 | 190 | 0.0 | 0.0 | 0.00 | 0.00 | 0.00 | 16 | 1014.6 |
| 20260502004832 | 21 | 110 | 14.5 | 17.7 | 0.00 | 0.00 | 0.00 | 17 | 1014.5 |
| 20260502004328 | 21 | 150 | 14.5 | 16.1 | 0.00 | 0.00 | 0.00 | 18 | 1014.5 |
| 20260502003826 | 21 | 159 | 3.2 | 4.8 | 0.00 | 0.00 | 0.00 | 16 | 1014.5 |
| 20260502003323 | 21 | 185 | 1.6 | 3.2 | 0.00 | 0.00 | 0.00 | 15 | 1014.8 |
| 20260502002819 | 22 | 143 | 4.8 | 8.0 | 0.00 | 0.00 | 0.00 | 16 | 1014.8 |
| 20260502002316 | 22 | 176 | 6.4 | 8.0 | 0.00 | 0.00 | 0.00 | 16 | 1014.8 |
| 20260502001813 | 22 | 113 | 8.0 | 9.7 | 0.00 | 0.00 | 0.00 | 15 | 1014.6 |
| 20260502001311 | 22 | 161 | 8.0 | 11.3 | 0.00 | 0.00 | 0.00 | 15 | 1014.8 |
| 20260502000808 | 22 | 160 | 16.1 | 17.7 | 0.00 | 0.00 | 0.00 | 14 | 1014.8 |
| 20260502000306 | 22 | 120 | 8.0 | 9.7 | 0.00 | 0.00 | 0.00 | 14 | 1014.8 |
| 20260501235802 | 22 | 124 | 8.0 | 9.7 | 0.00 | 0.00 | 0.00 | 15 | 1014.9 |